This demonstration page uses our WeatherBlox Daily Observations layout. Learn more.

Left ArrowRight Arrow

30.21309, -93.2044

Hourly Observations for July 12, 2021

Temp ( °F °C ) Dew Point ( °F °C ) Humidity (%) Winds ( mph kmh ) Pressure ( in mb ) Visibility ( mi km ) Precip ( " mm )
12:15 am 00:15 Partly Cloudy 81 27.2 76 24.2 84 84 SW 7 11 30.03 1017 10 16 0.00 0.00
12:35 am 00:35 Clear 81 27 76 24.2 85 85 SW 6 9 30.02 1017 10 16 0.00 0.00
12:55 am 00:55 Clear 81 27.1 76 24.2 84 84 SW 8 13 30.02 1017 10 16 0.00 0.00
1:15 am 01:15 Clear 81 27.1 75 24 83 83 SW 7 11 30.02 1017 10 16 0.00 0.00
1:35 am 01:35 Clear 81 27.1 75 23.8 82 82 WSW 7 11 30.02 1017 10 16 0.00 0.00
1:55 am 01:55 Clear 81 27.1 75 23.8 82 82 WSW 6 9 30.03 1017 10 16 0.00 0.00
2:15 am 02:15 Partly Cloudy 81 27.1 75 23.8 82 82 SW 6 9 30.03 1017 10 16 0.00 0.00
2:35 am 02:35 Partly Cloudy 80 26.8 75 23.9 84 84 SSW 5 7 30.02 1017 10 16 0.00 0.00
2:55 am 02:55 Partly Cloudy 77 24.9 74 23.4 91 91 S 3 6 30.02 1017 10 16 0.00 0.00
3:15 am 03:15 Partly Cloudy 77 24.9 74 23.6 93 93 S 5 7 30.02 1017 10 16 0.00 0.00
3:35 am 03:35 Clear 76 24.6 74 23.5 94 94 SSE 6 9 30.02 1017 10 16 0.00 0.00
3:55 am 03:55 Clear 77 25.1 75 23.9 93 93 SSE 5 7 30.02 1017 10 16 0.00 0.00
4:15 am 04:15 Clear 78 25.4 76 24.2 93 93 S 3 6 30.03 1017 10 16 0.00 0.00
4:35 am 04:35 Clear 77 25 75 23.8 93 93 Calm 30.03 1017 10 16 0.00 0.00
4:55 am 04:55 Partly Cloudy 79 26.2 76 24.3 89 89 Calm 30.03 1017 10 16 0.00 0.00
5:15 am 05:15 Mostly Cloudy 79 26.3 76 24.5 90 90 SW 5 7 30.03 1017 10 16 0.00 0.00
5:35 am 05:35 Partly Cloudy 79 26.2 76 24.5 90 90 SSW 6 9 30.02 1017 10 16 0.00 0.00
6:00 am 06:00 Mostly Clear 81 27 75 24 84 84 S 6 9 30.02 1017 10 16 0.00 0.00
6:55 am 06:55 Mostly Cloudy 81 27 75 24 84 84 S 6 9 30.05 1018 10 16 0.00 0.00
7:50 am 07:50 Mostly Cloudy with Showers 82 28 77 25 84 84 SW 5 7 30.08 1019 5 8 0.00 0.00
8:11 am 08:11 Mostly Cloudy with Thunderstorms 75 24 68 20 78 78 NNW 22 35 30.09 1019 7 11 0.00 0.00
8:55 am 08:55 Cloudy with Thunderstorms 75 24 68 20 78 78 WNW 12 19 30.09 1019 3 5 0.00 0.00
9:45 am 09:45 Cloudy with Thunderstorms 70 21 68 20 94 94 SE 6 9 30.13 1020 4 6 0.00 0.00
10:53 am 10:53 Mostly Cloudy with Mist and Fog 73 23 70 21 89 89 SE 8 13 30.13 1020 6 10 0.00 0.00
11:53 am 11:53 Mostly Cloudy 75 24 72 22 89 89 SSE 8 13 30.11 1020 10 16 0.00 0.00
12:55 pm 12:55 Mostly Sunny 75 24 70 21 83 83 WSW 6 9 30.11 1020 10 16 0.00 0.00
1:53 pm 13:53 Mostly Sunny 84 29 73 23 70 70 W 8 13 30.10 1019 10 16 0.00 0.00
2:45 pm 14:45 Mostly Sunny 86 30 75 24 70 70 S 9 15 30.08 1019 10 16 0.00 0.00
3:47 pm 15:47 Mostly Sunny 88 31 75 24 66 66 SSW 7 11 30.07 1018 10 16 0.00 0.00
4:55 pm 16:55 Partly Cloudy 90 32 73 23 59 59 S 10 17 30.06 1018 10 16 0.00 0.00
5:47 pm 17:47 Mostly Sunny 88 31 75 24 66 66 SSW 12 19 30.04 1017 10 16 0.00 0.00
6:55 pm 18:55 Mostly Cloudy with Thunderstorms 82 28 68 20 62 62 NW 12 19 30.09 1019 5 8 0.00 0.00
7:55 pm 19:55 Mostly Sunny 75 24 70 21 83 83 NE 7 11 30.07 1018 10 16 0.00 0.00
8:50 pm 20:50 Mostly Clear 73 23 70 21 89 89 ESE 7 11 30.06 1018 10 16 0.00 0.00
9:50 pm 21:50 Mostly Clear 73 23 70 21 89 89 Calm 30.09 1019 10 16 0.00 0.00
10:15 pm 22:15 Clear 74 23.5 71 21.4 88 88 Calm 30.10 1019 10 16 0.00 0.00
10:35 pm 22:35 Clear 75 23.8 71 21.4 86 86 Calm 30.11 1020 10 16 0.00 0.00
10:55 pm 22:55 Clear 74 23.4 71 21.7 90 90 NNW 6 9 30.11 1020 10 16 0.00 0.00
11:15 pm 23:15 Clear 74 23.1 70 21.3 90 90 N 3 6 30.12 1020 10 16 0.00 0.00
11:35 pm 23:35 Clear 74 23.2 71 21.6 91 91 NE 3 6 30.12 1020 10 16 0.00 0.00
11:55 pm 23:55 Partly Cloudy 74 23.2 71 21.7 91 91 NNE 6 9 30.13 1020 10 16 0.00 0.00

Powered by AerisWeather